User: anonymous
Location: UBC Liquid-Mirror Observatory
(49.2876°N, 122.5728°W)
Time: 20:38:16
(UTC-07:00)
Language:

KITSAT 1 - Orbit

View from above orbital plane
View from above orbital plane
View from above satellite
View from above satellite

Ground track
Ground track

The orbit data is extracted from the following two-line orbital elements,

1 22077U 92052B   14204.11309233 -.00000078  00000-0 -66006-4 0  6850
2 22077 066.0860 027.0075 0007556 209.1525 241.3395 12.86494002 31023
Epoch (UTC): 23 July 2014 02:42:51
Eccentricity: 0.0007556
inclination: 66.0860°
perigee height: 1309 km
apogee height: 1321 km
right ascension of ascending node: 27.0075°
argument of perigee: 209.1525°
revolutions per day: 12.86494002
mean anomaly at epoch: 241.3395°
orbit number at epoch: 3102

The dashed part of the orbit path shows where the satellite is in the earth's shadow,  

DLR